Regional Weather Roundup
Issued by NWS

Home | Current Version | Previous Version | Graphics & Text | Print | Product List | Glossary On
Versions: 1 2 3 4 5 6 7 8 9 10 11 12 13 14 15 16 17 18 19 20 21 22 23 24 25 26 27 28 29 30 31 32 33 34 35 36 37 38 39 40 41 42 43 44 45 46 47 48 49 50
000
ASUS43 KTOP 010208
RWRKS

WEATHER ROUNDUP FOR KANSAS
NATIONAL WEATHER SERVICE GOODLAND KS
900 PM CDT SUN AUG 31 2014

NOTE:  "FAIR" INDICATES FEW OR NO CLOUDS BELOW 12,000 FEET WITH NO
SIGNIFICANT WEATHER AND/OR OBSTRUCTIONS TO VISIBILITY.

KSZ001>006-013>018-027>032-041>047-010300-
NORTHWEST KANSAS

CITY           SKY/WX    TMP DP  RH WIND       PRES   REMARKS
GOODLAND       CLOUDY    66  57  72 CALM      29.84F
HAYS           CLOUDY    73  57  56 NE20      29.69F
HILL CITY      TSTM      72  61  68 NE12      29.73F
RUSSELL        CLOUDY    72  63  73 N18G24    29.67F
$$

KSZ061>065-074>080-084>089-010300-
SOUTHWEST KANSAS

CITY           SKY/WX    TMP DP  RH WIND       PRES   REMARKS
DODGE CITY     LGT RAIN  79  67  66 S9        29.69F
ELKHART          N/A     86  44  23 S9          N/A
GARDEN CITY    MOCLDY    75  58  55 NE20G26   29.69F
GREAT BEND     CLOUDY    70  64  83 N12       29.68R THUNDER
LIBERAL        PTCLDY    88  43  20 NE13      29.68R
PRATT          MOCLDY    88  57  35 S29G36    29.64F
$$

KSZ066>073-081>083-090>101-010300-
SOUTHEAST KANSAS

CITY           SKY/WX    TMP DP  RH WIND       PRES   REMARKS
CHANUTE        CLEAR     86  65  49 S23G30    29.75F
COFFEYVILLE    CLEAR     86  67  52 S16       29.76R
HUTCHINSON     CLOUDY    90  60  36 SW8G43    29.67R
MEDICINE LODGE   N/A     89  63  41 S21G26    29.63F
NEWTON         CLOUDY    90  61  37 S21G33    29.68F
PARSONS        CLEAR     86  66  51 S13G24    29.77S
WICHITA INTL   CLOUDY    90  62  39 S24G36    29.65F
WICHITA JABRA  MOCLDY    87  64  46 S23G30    29.67S
WICHITA MCCONL MOCLDY    88  65  46 SE21G29   29.67F
WINFIELD       CLEAR     87  65  47 S18G25    29.73R
$$

KSZ007>012-019>026-033>040-048>060-102>105-010300-
NORTHEAST KANSAS

CITY           SKY/WX    TMP DP  RH WIND       PRES   REMARKS
CONCORDIA      CLOUDY    69  67  93 SE5       29.68S
EMPORIA        MOCLDY    86  67  52 S23G35    29.68S
LAWRENCE       CLOUDY    90  64  42 S15G24    29.69S
MANHATTAN      TSTM      71  32  23 SW16G29   29.68F
OLATHE IND     CLOUDY    85  66  53 S20G29    29.72F
OLATHE EXE     CLOUDY    84  65  52 S22       29.71F
SALINA         TSTM      72  64  76 SW16      29.70S
TOPEKA BILLARD CLOUDY    90  67  46 S9G21     29.73R
TOPEKA FORBES  CLOUDY    88  66  48 S14G23    29.71R
$$



USA.gov is the U.S. government's official web portal to all federal, state and local government web resources and services.